Kezdőlap
METAR-TAF:

METAR-TAF

Repülőterek :

Marshfield Municipal Airport

Marshfield, Wisconsin, Amerikai Egyesült Államok

földrajzi szélesség: 44-38-17N, földrajzi hosszúság: 090-11-15W, magasság: 389 m

Jelenlegi meteorológiai megfigyelések

A jelentés 36 perccel ezelõtt készült, 12:54 UTC
Keleti szél 3 kt
Hőmérséklet -10°C
Páratartalom 85%
Légköri nyomás 1029 hPa
Látótávolság: 16.1 km
Borult 1700 lábon

METAR: KMFI 081254Z AUTO 08003KT 10SM OVC017 M10/M12 A3038 RMK AO2 SLP314 T11001117

Idő: 07:30 (13:30 UTC)


TAF: hiányzik

Meteorológiai megfigyelések és előrejelzések több, mint 4000 repülőtéren (METAR és TAF jelentéseket).

A térképen piros és sárga pontok jelzik az elérhető meteorológiai állomásokat.

Mozgassa az egeret a pont fölött, hogy megjelenjen az állomás neve.

Azután kattintson az időjárási megfigyelések és előrejelzések megtekintéséhez.

A térkép megváltoztatása: kattintson a fekete keresztel jelölt zöld gombra ráközelítéshez, a vonallal jelölt zöld gombra távolításhoz, vagy a zöld nyilakra a szomszédos térképek eléréséhez.


METAR-TAF: